* Astronomy

Members Login
Post Info TOPIC: TNO 2010 LQ68


L

Posts: 131433
Date:
TNO 2010 LQ68
Permalink  
 


Asteroid 2010 LQ68

Orbital elements:
2010 LQ68
Epoch 2011 Aug. 27.0 TT = JDT 2455800.5                 MPC
M 314.51307              (2000.0)            P               Q
n   0.00327493     Peri.   12.65573     +0.75279284     +0.65671469
a  44.9091574      Node   306.20115     -0.60869970     +0.66843910
e   0.2249657      Incl.    3.19976     -0.25057458     +0.34916325
P 301              H    7.6           G   0.15           U   5

MPEC 2011 - M09

H = 7.6,  (85 - 190km in diameter)

q = 34.806 AU



__________________
Page 1 of 1  sorted by
Quick Reply

Please log in to post quick replies.



Create your own FREE Forum
Report Abuse
Powered by ActiveBoard